Weather reports worldwide

Advertisment
Oviedo, Spain (8015): temperature & dewpoint: 14.01.2021 13:00:00 - 20.01.2021 13:00:00 (CET)Oviedo, Spain (8015): wind speed: 14.01.2021 13:00:00 - 20.01.2021 13:00:00 (CET)Oviedo, Spain (8015): wind direction: 14.01.2021 13:00:00 - 20.01.2021 13:00:00 (CET)Oviedo, Spain (8015): reduced air pressure: 14.01.2021 13:00:00 - 20.01.2021 13:00:00 (CET)Oviedo, Spain (8015): visibility: 14.01.2021 13:00:00 - 20.01.2021 13:00:00 (CET)Oviedo, Spain (8015): precipitation: 14.01.2021 13:00:00 - 20.01.2021 13:00:00 (CET)
Date & Time tt [°C] td [°C] ff [km/h] ff [kn] dd ppp [hPa] vv [km] rr [mm]
20.01.2021 13:00:00 16,7 4,0 13 7 S 995,8 20 -
20.01.2021 12:00:00 15,2 2,7 15 8 S 996,5 20 0,0
20.01.2021 11:00:00 12,4 3,1 9 5 S 997,0 20 0,0
20.01.2021 10:00:00 11,6 2,3 9 5 SSE 997,7 20 -
20.01.2021 09:00:00 10,7 2,3 13 7 SE 997,1 20 0,0
20.01.2021 08:00:00 11,1 2,1 11 6 SE 998,5 20 0,0
20.01.2021 07:00:00 11,1 1,9 13 7 S 998,9 20 -
20.01.2021 06:00:00 10,9 2,5 11 6 SSE 999,6 20 0,0
20.01.2021 05:00:00 10,9 2,7 9 5 S 1001,2 20 0,0
20.01.2021 04:00:00 10,8 1,9 11 6 SE 1002,2 20 -
20.01.2021 03:00:00 10,6 1,4 9 5 SE 1003,5 20 0,0
20.01.2021 02:00:00 10,8 1,3 18 10 SSE 1004,4 20 0,0
20.01.2021 01:00:00 11,1 0,2 21 11 S 1005,9 20 -
20.01.2021 00:00:00 11,5 -0,3 11 6 SSE 1007,0 20 0,0
19.01.2021 23:00:00 11,8 -1,0 8 4 S 1008,0 20 0,0
19.01.2021 22:00:00 12,0 -1,9 9 5 SSE 1008,6 20 -
19.01.2021 21:00:00 12,2 -1,7 8 4 S 1009,8 20 0,0
19.01.2021 20:00:00 12,1 -1,8 11 6 SSE 1010,5 20 0,0
19.01.2021 19:00:00 12,9 -4,3 9 5 S 1011,1 20 -
19.01.2021 18:00:00 13,1 -2,8 9 5 SSE 1011,6 20 0,0
19.01.2021 17:00:00 13,4 -1,8 11 6 SE 1012,3 20 0,0
19.01.2021 16:00:00 14,0 -0,1 9 5 SE 1012,9 20 -
19.01.2021 15:00:00 12,8 -0,1 5 3 SE 1014,1 20 0,0
19.01.2021 14:00:00 10,5 3,1 8 4 SE 1015,6 20 0,0
19.01.2021 13:00:00 9,2 0,9 5 3 W 1017,0 20 -
19.01.2021 12:00:00 11,3 1,5 4 2 SSE 1017,5 20 0,0
19.01.2021 11:00:00 10,6 0,0 5 3 SSE 1018,1 20 0,0
19.01.2021 10:00:00 7,1 0,7 4 2 WNW 1019,2 20 -
19.01.2021 09:00:00 7,4 -0,3 4 2 SSE 1019,5 20 0,0
19.01.2021 08:00:00 6,7 1,6 5 3 SE 1020,2 20 0,0
19.01.2021 07:00:00 7,1 1,2 4 2 WNW 1020,8 20 -
19.01.2021 06:00:00 6,2 2,3 4 2 SSE 1021,2 20 0,0
19.01.2021 05:00:00 6,1 2,4 8 4 W 1021,7 14 0,0
19.01.2021 04:00:00 5,9 2,7 4 2 SSW 1022,4 6 -
19.01.2021 03:00:00 6,3 2,9 5 3 S 1022,7 20 0,0
19.01.2021 02:00:00 6,2 3,4 8 4 SSW 1023,7 20 0,0
19.01.2021 01:00:00 6,3 4,0 9 5 S 1024,3 20 -
19.01.2021 00:00:00 6,7 3,7 9 5 S 1024,7 20 0,0
18.01.2021 23:00:00 7,1 4,9 9 5 S 1024,8 20 0,0
18.01.2021 22:00:00 7,7 5,7 9 5 S 1025,0 19 -
18.01.2021 21:00:00 8,5 6,8 9 5 S 1025,1 19 0,0
18.01.2021 20:00:00 9,3 8,2 5 3 S 1025,3 14 0,0
18.01.2021 19:00:00 10,0 8,4 5 3 E 1025,2 20 -
18.01.2021 18:00:00 11,4 8,4 5 3 E 1025,2 19 0,0
18.01.2021 17:00:00 12,5 8,4 4 2 E 1025,2 20 0,0
18.01.2021 16:00:00 12,5 8,2 8 4 NE 1025,4 20 -
18.01.2021 15:00:00 12,1 8,0 4 2 ENE 1025,9 20 0,0
18.01.2021 14:00:00 11,5 7,6 4 2 E 1026,8 20 0,0
18.01.2021 13:00:00 11,4 7,3 8 4 E 1027,9 20 -
18.01.2021 12:00:00 10,1 7,2 5 3 SE 1028,9 17 0,0
18.01.2021 11:00:00 8,1 6,6 2 1 SSE 1029,2 15 0,0
18.01.2021 10:00:00 7,2 6,1 2 1 SSE 1029,2 15 -
18.01.2021 09:00:00 7,1 6,0 5 3 S 1029,5 - 0,0
18.01.2021 08:00:00 7,3 6,2 4 2 SSW 1029,6 18 0,0
18.01.2021 07:00:00 7,6 6,5 4 2 S 1029,4 15 -
18.01.2021 06:00:00 7,8 6,7 5 3 S 1029,3 4,6 0,0
18.01.2021 05:00:00 8,0 6,9 5 3 S 1029,4 11 0,0
18.01.2021 04:00:00 8,1 7,0 5 3 S 1029,7 17 -
18.01.2021 03:00:00 8,2 7,1 5 3 S 1030,0 19 0,0
18.01.2021 02:00:00 8,3 7,2 4 2 S 1030,1 19 0,0
18.01.2021 01:00:00 8,5 7,4 5 3 S 1030,5 19 -
18.01.2021 00:00:00 8,7 7,6 5 3 S 1030,6 17 0,0
17.01.2021 23:00:00 9,0 7,6 9 5 SSW 1030,5 19 0,0
17.01.2021 22:00:00 9,4 7,7 5 3 S 1030,6 20 -
17.01.2021 21:00:00 9,7 7,8 9 5 SSW 1030,7 20 0,0
17.01.2021 20:00:00 9,9 7,5 4 2 S 1030,8 20 0,0
17.01.2021 19:00:00 10,1 7,3 5 3 S 1030,7 20 -
17.01.2021 18:00:00 10,4 6,9 8 4 SSW 1030,4 19 0,0
17.01.2021 17:00:00 10,9 6,2 5 3 S 1030,2 20 0,0
17.01.2021 16:00:00 10,9 5,6 5 3 S 1030,2 20 -
17.01.2021 15:00:00 10,7 5,7 5 3 SSW 1030,2 20 0,0
17.01.2021 14:00:00 10,3 5,9 5 3 SW 1030,6 19 0,0
17.01.2021 13:00:00 9,0 3,0 9 5 S 1031,7 20 -
17.01.2021 12:00:00 7,9 2,6 9 5 S 1032,4 20 0,0
17.01.2021 11:00:00 6,6 1,7 4 2 SSE 1032,4 20 0,0
17.01.2021 10:00:00 4,9 1,2 5 3 S 1032,2 20 -
17.01.2021 09:00:00 3,8 -0,4 9 5 S 1032,2 20 0,0
17.01.2021 08:00:00 2,9 -0,9 15 8 S 1032,2 20 0,0
17.01.2021 07:00:00 3,1 -0,9 11 6 S 1031,7 20 -
17.01.2021 06:00:00 3,0 -1,4 9 5 S 1031,2 20 0,0
17.01.2021 05:00:00 3,8 -1,2 8 4 S 1031,0 20 0,0
17.01.2021 04:00:00 3,8 -1,8 9 5 S 1031,0 20 -
17.01.2021 03:00:00 3,6 -1,0 9 5 S 1031,1 20 0,0
17.01.2021 02:00:00 4,3 -1,1 8 4 S 1031,0 20 0,0
17.01.2021 01:00:00 4,7 -1,1 8 4 SSW 1031,0 20 -
17.01.2021 00:00:00 4,5 -0,1 9 5 S 1031,4 19 0,0
16.01.2021 23:00:00 5,0 0,6 8 4 S 1031,7 19 0,0
16.01.2021 22:00:00 5,6 1,5 11 6 S 1031,5 18 -
16.01.2021 21:00:00 6,3 1,2 8 4 S 1031,4 19 0,0
16.01.2021 20:00:00 7,3 3,7 8 4 E 1031,2 19 0,0
16.01.2021 19:00:00 9,2 3,6 8 4 ESE 1030,4 20 -
16.01.2021 18:00:00 11,4 -2,8 2 1 N 1029,4 20 0,0
16.01.2021 17:00:00 12,5 -2,6 2 1 S 1028,8 20 0,0
16.01.2021 16:00:00 12,2 -1,7 5 3 SSW 1029,1 20 -
16.01.2021 15:00:00 10,9 -0,3 4 2 SW 1029,5 20 0,0
16.01.2021 14:00:00 9,9 0,5 2 1 S 1030,1 20 0,0
16.01.2021 13:00:00 7,7 2,6 4 2 SSW 1031,0 20 -
16.01.2021 12:00:00 8,2 0,7 2 1 S 1031,3 20 0,0
16.01.2021 11:00:00 4,3 -0,1 9 5 S 1031,5 20 0,0
16.01.2021 10:00:00 1,7 -1,2 5 3 S 1031,7 20 -
16.01.2021 09:00:00 1,4 -1,3 8 4 S 1031,6 20 0,0
16.01.2021 08:00:00 1,3 -0,6 11 6 S 1031,5 20 0,0
16.01.2021 07:00:00 1,1 -0,5 15 8 S 1031,3 20 -
16.01.2021 06:00:00 1,1 -0,4 9 5 S 1031,6 20 0,0
16.01.2021 05:00:00 1,2 -0,1 9 5 S 1031,7 19 0,0
16.01.2021 04:00:00 1,5 0,0 8 4 S 1032,1 20 -
16.01.2021 03:00:00 1,9 0,3 9 5 S 1031,9 19 0,0
16.01.2021 02:00:00 2,5 0,9 9 5 S 1031,8 19 0,0
16.01.2021 01:00:00 3,0 1,5 8 4 S 1031,6 18 -
16.01.2021 00:00:00 3,5 1,9 8 4 S 1032,0 18 0,0
15.01.2021 23:00:00 4,1 2,9 8 4 S 1031,9 14 0,0
15.01.2021 22:00:00 4,9 4,0 5 3 SSE 1031,9 14 -
15.01.2021 21:00:00 6,0 5,1 2 1 SSW 1031,8 13 0,0
15.01.2021 20:00:00 6,9 5,8 4 2 E 1031,7 17 0,0
15.01.2021 19:00:00 7,7 6,0 9 5 ENE 1031,6 20 -
15.01.2021 18:00:00 9,1 5,8 5 3 ENE 1031,1 20 0,0
15.01.2021 17:00:00 10,4 4,7 5 3 E 1030,5 20 0,0
15.01.2021 16:00:00 10,6 5,4 8 4 E 1030,6 20 -
15.01.2021 15:00:00 10,4 5,4 5 3 E 1030,6 20 0,0
15.01.2021 14:00:00 10,5 5,9 5 3 SE 1031,1 20 0,0
15.01.2021 13:00:00 8,8 5,2 2 1 S 1032,9 20 -
15.01.2021 12:00:00 6,9 4,7 4 2 NNW 1033,5 20 0,0
15.01.2021 11:00:00 5,7 5,6 2 1 S 1033,3 15 0,0
15.01.2021 10:00:00 5,0 5,0 5 3 S 1033,3 20 -
15.01.2021 09:00:00 4,8 4,8 2 1 WNW 1032,5 12 0,0
15.01.2021 08:00:00 5,1 5,1 4 2 S 1032,5 2,0 0,0
15.01.2021 07:00:00 5,4 5,4 8 4 S 1032,2 4,0 -
15.01.2021 06:00:00 5,6 5,6 4 2 S 1032,0 10 0,0
15.01.2021 05:00:00 5,9 5,9 8 4 S 1032,1 2,4 0,0
15.01.2021 04:00:00 5,8 5,8 8 4 S 1032,6 2,9 -
15.01.2021 03:00:00 6,0 6,0 5 3 S 1032,5 0,5 0,0
15.01.2021 02:00:00 6,1 6,1 8 4 S 1032,4 1,3 0,2
15.01.2021 01:00:00 6,2 6,2 2 1 SE 1032,4 9 -
15.01.2021 00:00:00 6,4 6,4 8 4 S 1032,0 4,3 0,0
14.01.2021 23:00:00 6,5 6,5 8 4 S 1032,1 2,4 0,0
14.01.2021 22:00:00 6,6 6,6 5 3 S 1032,0 1,1 -
14.01.2021 21:00:00 6,7 6,6 8 4 S 1031,8 1,7 0,2
14.01.2021 20:00:00 6,9 6,6 5 3 S 1031,7 0,5 0,2
14.01.2021 19:00:00 7,4 7,0 4 2 SW 1031,5 2,0 -
14.01.2021 18:00:00 8,0 6,8 4 2 SW 1031,1 3,4 0,4
14.01.2021 17:00:00 8,6 6,6 2 1 W 1031,0 8 0,0
14.01.2021 16:00:00 8,3 5,4 8 4 S 1031,0 8 -
14.01.2021 15:00:00 8,1 5,0 4 2 S 1031,1 12 0,0
14.01.2021 14:00:00 7,3 3,3 5 3 S 1031,4 18 0,0
14.01.2021 13:00:00 6,6 2,9 4 2 S 1032,2 19 -

tt = temperature
td = dewpoint
ff = wind speed
dd = wind direction
ppp = reduced air pressure
vv = visibility
rr = precipitation

Next stations